This is the latest recevied weather packets stored in our database for station/object N4RCT. If no packets are shown the sender has not sent any weather packets the latest 10 day(s).
| Time | Temp. | Humidity | Pressure | Rain* | Wind** | Luminosity | Snow |
|---|---|---|---|---|---|---|---|
| 1777789537 | 7.78° C | 86% | 1017.2 hPa | 0 mm | - | 0 W/m² | - |
| 1777789235 | 7.78° C | 86% | 1017.4 hPa | 0 mm | - | 0 W/m² | - |
| 1777788932 | 7.78° C | 85% | 1017.3 hPa | 0 mm | - | 0 W/m² | - |
| 1777788628 | 7.78° C | 86% | 1017.3 hPa | 0 mm | - | 0 W/m² | - |
| 1777788328 | 7.78° C | 86% | 1017.3 hPa | 0 mm | - | 0 W/m² | - |
| 1777788024 | 7.78° C | 86% | 1017.1 hPa | 0 mm | - | 0 W/m² | - |
| 1777787719 | 7.78° C | 85% | 1017.4 hPa | 0 mm | - | 0 W/m² | - |
| 1777787415 | 7.78° C | 86% | 1017.3 hPa | 0 mm | - | 0 W/m² | - |
| 1777787111 | 7.78° C | 86% | 1017.1 hPa | 0 mm | - | 0 W/m² | - |
| 1777786809 | 7.78° C | 86% | 1017.3 hPa | 0 mm | - | 0 W/m² | - |
| 1777786506 | 8.33° C | 86% | 1017.2 hPa | 0 mm | - | 0 W/m² | - |
| 1777786204 | 8.33° C | 84% | 1017.3 hPa | 0 mm | - | 0 W/m² | - |
| 1777785901 | 8.33° C | 82% | 1017.3 hPa | 0 mm | - | 0 W/m² | - |
| 1777785596 | 8.33° C | 82% | 1017.4 hPa | 0 mm | - | 0 W/m² | - |
| 1777785292 | 8.33° C | 85% | 1017.3 hPa | 0 mm | - | 0 W/m² | - |
| 1777784990 | 8.33° C | 81% | 1017.1 hPa | 0 mm | - | 0 W/m² | - |
| 1777784685 | 8.33° C | 79% | 1017.4 hPa | 0 mm | - | 0 W/m² | - |
| 1777784383 | 8.33° C | 82% | 1017 hPa | 0 mm | - | 0 W/m² | - |
| 1777784081 | 8.89° C | 83% | 1017.1 hPa | 0 mm | - | 0 W/m² | - |
| 1777783777 | 8.89° C | 83% | 1017.1 hPa | 0 mm | - | 0 W/m² | - |
| 1777783474 | 8.89° C | 82% | 1017 hPa | 0 mm | - | 0 W/m² | - |
| 1777783172 | 8.89° C | 80% | 1016.9 hPa | 0 mm | - | 0 W/m² | - |
| 1777782868 | 8.89° C | 82% | 1016.8 hPa | 0 mm | - | 0 W/m² | - |
| 1777782564 | 8.89° C | 80% | 1017 hPa | 0 mm | - | 0 W/m² | - |
| 1777782261 | 8.89° C | 78% | 1017.1 hPa | 0 mm | - | 0 W/m² | - |
* Rain latest hour (hover to see other rain measurements)
** Current wind speed in m/s (hover to see current wind gust speed)